Tracking 35331 objects as of 14-Sep-2026
HD Live streaming from Space Station
objects crossing your sky now

STARLINK-34560

Track STARLINK-34560 now!
10-day predictions
STARLINK-34560 is classified as:


NORAD ID: 64700
Int'l Code: 2025-142E
Launch date: June 28, 2025
Source: United States (US)
Launch site: AIR FORCE WESTERN TEST RANGE (AFWTR)
Your satellite tracking list
Your tracking list is empty




NASA's NSSDC Master Catalog

Two Line Element Set (TLE):
1 64700U 25142E   26257.24129052  .00009121  00000-0  32134-3 0  9997
2 64700  70.0019 197.4415 0002768 265.1007  94.9852 15.29583452 67724
Source of the keplerian elements: AFSPC